Change the Weather History Date:

Tuesday, February 18, 2014

  Actual Average Record
Temperature  
Mean Temperature 44 °F -  
Max Temperature 48 °F 47 °F 53 °F (1998)
Min Temperature 40 °F 35 °F 15 °F (2003)
Degree Days  
Heating Degree Days 21    
Moisture  
Dew Point 37 °F    
Average Humidity 75    
Maximum Humidity 87    
Minimum Humidity 57    
Precipitation  
Precipitation 0.00 in - - ()
Sea Level Pressure  
Sea Level Pressure 29.88 in    
Wind  
Wind Speed 5 mph ()    
Max Wind Speed 10 mph    
Max Gust Speed -    
Visibility 8.3 miles    
Events Rain    
Averages and records for this station are not official NWS values.
T = Trace of Precipitation, MM = Missing Value Source: Averaged Metar Reports

Daily Weather History Graph

Daily Weather History Graph

Search for Another Location

Airport or City:

Trip Planner

Search our weather history database for the weather conditions in past years. The results will help you decide how hot, cold, wet, or windy it might be!

Date:

Astronomy

Feb. 18, 2014 Rise Set
Actual Time 7:50 AM CET 6:03 PM CET
Civil Twilight 7:16 AM CET 6:37 PM CET
Nautical Twilight 6:37 AM CET 7:16 PM CET
Astronomical Twilight 5:59 AM CET 7:54 PM CET
Moon 10:11 PM CET (2/18) 8:47 AM CET (2/18)
Length of Visible Light 11h 20m
Length of Day
10h 12m
Waning Gibbous, 89% of the Moon is Illuminated
Feb 18
Waning Gibbous
Feb 22
Last Quarter
Mar 1
New
Mar 8
First Quarter
Mar 16
Full

Hourly Weather History & Observations

Time (CET) Temp. Windchill Dew Point Humidity Pressure Visibility Wind Dir Wind Speed Gust Speed Precip Events Conditions
12:00 AM 42 °F - 37 °F 78% 29.97 in 19 mi SSE 4.5 mph - -   Mostly Cloudy
12:25 AM 42.8 °F 40.1 °F 37.4 °F 81% 29.95 in 6.2 mi SSE 4.6 mph - N/A   Overcast
12:55 AM 42.8 °F 40.1 °F 37.4 °F 81% 29.95 in 6.2 mi SSE 4.6 mph - N/A   Overcast
1:00 AM 42 °F - 37 °F 76% 29.96 in 17 mi SSE 4.5 mph - -   Partly Cloudy
1:25 AM 41.0 °F 39.0 °F 37.4 °F 87% 29.95 in 6.2 mi SSE 3.5 mph - N/A   Overcast
1:55 AM 41.0 °F 38.0 °F 37.4 °F 87% 29.95 in 6.2 mi SSE 4.6 mph - N/A   Overcast
2:00 AM 42 °F - 37 °F 75% 29.95 in 18 mi SSE 4.5 mph - -   Overcast
2:25 AM 41.0 °F 38.0 °F 37.4 °F 87% 29.92 in 6.2 mi SSE 4.6 mph - N/A   Scattered Clouds
2:55 AM 41.0 °F 39.0 °F 37.4 °F 87% 29.92 in 6.2 mi SE 3.5 mph - N/A   Overcast
3:00 AM 40 °F - 36 °F 82% 29.94 in 18 mi SE 4.5 mph - -   Overcast
3:25 AM 41.0 °F 38.0 °F 35.6 °F 81% 29.92 in 6.2 mi SSE 4.6 mph - N/A   Overcast
3:55 AM 41.0 °F 38.0 °F 35.6 °F 81% 29.92 in 6.2 mi SSE 4.6 mph - N/A   Overcast
4:00 AM 41 °F - 36 °F 77% 29.92 in 22 mi SSE 4.5 mph - -   Overcast
4:25 AM 41.0 °F 38.0 °F 35.6 °F 81% 29.92 in 6.2 mi SSE 4.6 mph - N/A   Overcast
4:55 AM 41.0 °F 38.0 °F 35.6 °F 81% 29.92 in 6.2 mi SSE 4.6 mph - N/A   Overcast
5:00 AM 40 °F - 36 °F 79% 29.91 in 25 mi SSE 4.5 mph - -   Overcast
5:25 AM 41.0 °F 38.0 °F 35.6 °F 81% 29.92 in 6.2 mi SSE 4.6 mph - N/A   Overcast
5:55 AM 41.0 °F 38.0 °F 35.6 °F 81% 29.92 in 6.2 mi SSE 4.6 mph - N/A   Overcast
6:00 AM 40 °F - 36 °F 78% 29.92 in 25 mi SSE 4.5 mph - -   Overcast
6:25 AM 41.0 °F 38.0 °F 35.6 °F 81% 29.89 in 6.2 mi SSE 4.6 mph - N/A   Overcast
6:55 AM 42.8 °F 39.3 °F 35.6 °F 76% 29.89 in 6.2 mi SSE 5.8 mph - N/A   Overcast
7:00 AM 42 °F - 35 °F 70% 29.90 in 25 mi South 4.5 mph - -   Partly Cloudy
7:25 AM 42.8 °F 40.1 °F 35.6 °F 76% 29.89 in 6.2 mi SSE 4.6 mph - N/A   Overcast
7:55 AM 41.0 °F 39.0 °F 35.6 °F 81% 29.89 in 6.2 mi SSE 3.5 mph - N/A   Overcast
8:00 AM 42 °F - 35 °F 70% 29.90 in 25 mi SSE 4.5 mph - -   Overcast
8:25 AM 41.0 °F 38.0 °F 35.6 °F 81% 29.89 in 6.2 mi SSE 4.6 mph - N/A   Overcast
8:55 AM 42.8 °F 40.1 °F 35.6 °F 76% 29.89 in 6.2 mi SSE 4.6 mph - N/A   Overcast
9:00 AM 42 °F - 36 °F 72% 29.91 in 22 mi SSE 4.5 mph - -   Overcast
9:25 AM 42.8 °F 40.1 °F 35.6 °F 76% 29.89 in 6.2 mi South 4.6 mph - N/A   Overcast
9:55 AM 44.6 °F 42.2 °F 37.4 °F 76% 29.89 in 6.2 mi South 4.6 mph - N/A   Overcast
10:00 AM 44 °F - 37 °F 67% 29.90 in 22 mi SSE 4.5 mph - -   Overcast
10:25 AM 44.6 °F 41.4 °F 37.4 °F 76% 29.89 in 6.2 mi SSE 5.8 mph - N/A   Overcast
10:55 AM 46.4 °F 43.5 °F 37.4 °F 71% 29.89 in 6.2 mi South 5.8 mph - N/A   Overcast
11:00 AM 46 °F - 37 °F 62% 29.89 in 19 mi South 6.7 mph - -   Overcast
11:25 AM 46.4 °F 42.9 °F 37.4 °F 71% 29.86 in 6.2 mi South 6.9 mph - N/A   Overcast
11:55 AM 48.2 °F - 37.4 °F 66% 29.86 in 6.2 mi South 6.9 mph - N/A   Overcast
12:00 PM 48 °F - 38 °F 59% 29.88 in 22 mi South 6.7 mph - -   Overcast
12:25 PM 48.2 °F - 37.4 °F 66% 29.86 in 6.2 mi South 6.9 mph - N/A   Overcast
12:55 PM 48.2 °F - 37.4 °F 66% 29.86 in 6.2 mi South 8.1 mph - N/A   Overcast
1:00 PM 48 °F - 38 °F 57% 29.88 in 22 mi South 8.9 mph - -   Partly Cloudy
1:25 PM 48.2 °F - 39.2 °F 71% 29.86 in 6.2 mi SSW 6.9 mph - N/A   Overcast
1:55 PM 48.2 °F - 39.2 °F 71% 29.86 in 6.2 mi SSW 6.9 mph - N/A   Overcast
2:00 PM 48 °F - 38 °F 58% 29.86 in 15 mi SSW 6.7 mph - -   Overcast
2:25 PM 48.2 °F - 37.4 °F 66% 29.86 in 6.2 mi SSW 5.8 mph - N/A   Overcast
2:55 PM 48.2 °F - 37.4 °F 66% 29.83 in 6.2 mi South 4.6 mph - N/A   Overcast
3:00 PM 47 °F - 38 °F 63% 29.85 in 19 mi South 4.5 mph - -   Overcast
3:04 PM 48.2 °F - 37.4 °F 66% 29.83 in 6.2 mi South 4.6 mph - N/A   Overcast
3:25 PM 46.4 °F 43.5 °F 37.4 °F 71% 29.83 in 6.2 mi South 5.8 mph - N/A   Overcast
3:55 PM 46.4 °F 41.9 °F 37.4 °F 71% 29.83 in 6.2 mi South 9.2 mph - N/A   Overcast
4:00 PM 46 °F - 37 °F 62% 29.84 in 22 mi South 6.7 mph - -   Mostly Cloudy
4:25 PM 46.4 °F 44.3 °F 37.4 °F 71% 29.83 in 6.2 mi South 4.6 mph - N/A   Scattered Clouds
4:55 PM 46.4 °F 44.3 °F 37.4 °F 71% 29.83 in 6.2 mi South 4.6 mph - N/A   Scattered Clouds
5:00 PM 46 °F - 38 °F 65% 29.85 in 19 mi South 6.7 mph - -   Scattered Clouds
5:25 PM 46.4 °F 42.4 °F 37.4 °F 71% 29.83 in 6.2 mi South 8.1 mph - N/A   Mostly Cloudy
5:55 PM 44.6 °F 42.2 °F 37.4 °F 76% 29.83 in 6.2 mi SSW 4.6 mph - N/A   Mostly Cloudy
6:00 PM 45 °F - 38 °F 67% 29.84 in 15 mi South 4.5 mph - -   Mostly Cloudy
6:25 PM 44.6 °F 42.2 °F 37.4 °F 76% 29.83 in 6.2 mi South 4.6 mph - N/A   Overcast
6:55 PM 44.6 °F 42.2 °F 37.4 °F 76% 29.83 in 6.2 mi South 4.6 mph - N/A   Mostly Cloudy
7:00 PM 45 °F - 38 °F 67% 29.84 in 14 mi SSW 4.5 mph - -   Partly Cloudy
7:25 PM 44.6 °F 42.2 °F 37.4 °F 76% 29.83 in 6.2 mi South 4.6 mph - N/A   Mostly Cloudy
7:55 PM 44.6 °F 40.7 °F 37.4 °F 76% 29.83 in 6.2 mi South 6.9 mph - N/A   Overcast
8:00 PM 45 °F - 38 °F 70% 29.84 in 11 mi South 8.9 mph - - Rain Light Drizzle
8:25 PM 44.6 °F 40.7 °F 39.2 °F 81% 29.83 in 6.2 mi South 6.9 mph - N/A   Light Drizzle
8:55 PM 44.6 °F 40.2 °F 41.0 °F 87% 29.83 in 6.2 mi South 8.1 mph - N/A   Overcast
9:00 PM 44 °F - 41 °F 83% 29.84 in 11 mi South 6.7 mph - - Rain Drizzle
9:25 PM 44.6 °F 40.7 °F 41.0 °F 87% 29.83 in 6.2 mi South 6.9 mph - N/A   Overcast
9:55 PM 44.6 °F 40.7 °F 41.0 °F 87% 29.83 in 6.2 mi South 6.9 mph - N/A   Overcast
10:00 PM 45 °F - 40 °F 77% 29.85 in 14 mi South 8.9 mph - -   Overcast
10:25 PM 44.6 °F 40.2 °F 41.0 °F 87% 29.83 in 6.2 mi South 8.1 mph - N/A   Overcast
10:55 PM 44.6 °F 40.2 °F 41.0 °F 87% 29.83 in 6.2 mi SSW 8.1 mph - N/A   Overcast
11:00 PM 45 °F - 40 °F 78% 29.85 in 13 mi SSW 6.7 mph - - Rain Drizzle
11:25 PM 44.6 °F 40.2 °F 41.0 °F 87% 29.83 in 6.2 mi SSW 8.1 mph - N/A   Mostly Cloudy
11:55 PM 44.6 °F 39.2 °F 41.0 °F 87% 29.83 in 6.2 mi SW 10.4 mph - N/A   Overcast